Location: Artiguedieu
(43.5000°N, 0.5454°E)
Time: 21:02:48
(UTC+00:00)

Transit 2A - Pass Details

Date: 25 July 2021
Orbit: 594 x 964 km, 66.7° (Epoch: 28 September)

Event Time Altitude Azimuth Distance (km) Brightness Sun altitude
Rises 17:54:09 0° 315° (NW) 3,276 10.3 15.1°
Reaches altitude 10° 17:56:59 10° 300° (WNW) 2,410 10.4 14.6°
Maximum altitude 18:01:09 22° 252° (WSW) 1,797 9.1 13.8°
Drops below altitude 10° 18:05:34 10° 204° (SSW) 2,572 8.9 13.1°
Sets 18:08:42 0° 189° (S) 3,558 9.4 12.5°
